This is the latest recevied weather packets stored in our database for station/object K5SVV. If no packets are shown the sender has not sent any weather packets the latest 10 day(s).
| Time | Temp. | Humidity | Pressure | Rain* | Wind** | Luminosity | Snow |
|---|---|---|---|---|---|---|---|
| 1788557292 | 37.22° C | 42% | 1011 hPa | 0 mm | - | 511 W/m² | - |
| 1788556992 | 37.22° C | 43% | 1011.2 hPa | 0 mm | - | 517 W/m² | - |
| 1788556687 | 36.67° C | 44% | 1011.3 hPa | 0 mm | - | 553 W/m² | - |
| 1788556382 | 37.78° C | 42% | 1011.2 hPa | 0 mm | - | 575 W/m² | - |
| 1788556076 | 37.22° C | 43% | 1011.4 hPa | 0 mm | - | 597 W/m² | - |
| 1788555770 | 37.22° C | 43% | 1011.6 hPa | 0 mm | - | 325 W/m² | - |
| 1788555467 | 37.22° C | 44% | 1011.6 hPa | 0 mm | - | 622 W/m² | - |
| 1788555163 | 36.67° C | 44% | 1011.8 hPa | 0 mm | - | 603 W/m² | - |
| 1788554859 | 36.67° C | 44% | 1011.8 hPa | 0 mm | - | 621 W/m² | - |
| 1788554555 | 36.67° C | 44% | 1011.6 hPa | 0 mm | - | 635 W/m² | - |
| 1788554251 | 36.67° C | 44% | 1011.9 hPa | 0 mm | - | 660 W/m² | - |
| 1788553947 | 36.67° C | 42% | 1012 hPa | 0 mm | - | 695 W/m² | - |
| 1788553643 | 36.67° C | 43% | 1011.8 hPa | 0 mm | - | 688 W/m² | - |
| 1788553339 | 36.67° C | 42% | 1012 hPa | 0 mm | - | 680 W/m² | - |
| 1788553062 | 36.67° C | 44% | 1012 hPa | 0 mm | - | 684 W/m² | - |
| 1788552734 | 36.67° C | 42% | 1011.9 hPa | 0 mm | - | 712 W/m² | - |
| 1788552429 | 36.11° C | 43% | 1012.4 hPa | 0 mm | - | 707 W/m² | - |
| 1788552123 | 36.11° C | 45% | 1012 hPa | 0 mm | - | 389 W/m² | - |
| 1788551822 | 36.67° C | 43% | 1012.3 hPa | 0 mm | - | 301 W/m² | - |
| 1788551516 | 36.67° C | 42% | 1012.5 hPa | 0 mm | - | 688 W/m² | - |
| 1788551216 | 36.11° C | 45% | 1012.6 hPa | 0 mm | - | 698 W/m² | - |
| 1788550910 | 36.11° C | 44% | 1012.4 hPa | 0 mm | - | 690 W/m² | - |
| 1788550605 | 36.11° C | 44% | 1012.6 hPa | 0 mm | - | 762 W/m² | - |
| 1788550302 | 36.11° C | 45% | 1012.7 hPa | 0 mm | - | 765 W/m² | - |
| 1788550001 | 35.56° C | 47% | 1012.7 hPa | 0 mm | - | 741 W/m² | - |
* Rain latest hour (hover to see other rain measurements)
** Current wind speed in m/s (hover to see current wind gust speed)